{"data":{"norad_id":63763,"epoch":"2026-09-20T20:52:26.001696Z","epoch_age_seconds":117876,"freshness":"FRESH","line1":"1 63763U 25089N   26263.86974539  .00177127  00000+0  13562-2 0  9992","line2":"2 63763  43.0009 195.6357 0001959 307.3194  52.7494 15.70812606 80724","mean_motion":15.70812606,"eccentricity":0.0001959,"inclination_deg":43.0009,"raan_deg":195.6357,"arg_perigee_deg":307.3194,"mean_anomaly_deg":52.7494,"bstar":0.0013562,"rev_number":8072,"period_min":91.67229716006,"perigee_km":355.25403012581,"apogee_km":357.89268964482,"semimajor_km":6734.7103598853,"source":"CELESTRAK","updated_at":"2026-09-21T09:00:35.095154Z"}}